Regional Weather Roundup
Issued by NWS

Home | Current Version | Previous Version | Graphics & Text | Print | Product List | Glossary On
Versions: 1 2 3 4 5 6 7 8 9 10 11 12 13 14 15 16 17 18 19 20 21 22 23 24 25 26 27 28 29 30 31 32 33 34 35 36 37 38 39 40 41 42 43 44 45 46 47 48 49 50
000
ASUS43 KBIS 250210
RWRND

NORTH DAKOTA REGIONAL WEATHER ROUNDUP
NATIONAL WEATHER SERVICE BISMARCK ND
900 PM CDT SAT SEP 24 2016

NOTE: "FAIR" INDICATES FEW OR NO CLOUDS BELOW 12,000 FEET WITH NO
SIGNIFICANT WEATHER AND/OR OBSTRUCTIONS TO VISIBILITY.


NDZ001>003-009>011-017-250300-
NORTHWEST NORTH DAKOTA

CITY           SKY/WX    TMP DP  RH WIND       PRES   REMARKS
WILLISTON      LGT RAIN  53  49  86 N28G37    29.83R
MINOT          MOCLDY    62  60  93 W15       29.73R
MINOT AFB      CLOUDY    60  59  96 NW15      29.71R
$$

NDZ018>021-031>035-040>046-250300-
SOUTHWEST NORTH DAKOTA

CITY           SKY/WX    TMP DP  RH WIND       PRES   REMARKS
BISMARCK       MOCLDY    62  48  60 CALM      29.74R
DICKINSON      CLOUDY    55  54  96 NW15      29.73R
GARRISON         N/A     57  52  83 SW5       29.72R
HETTINGER ARPT CLOUDY    53  49  86 SW10      29.74F
$$

NDZ004>008-012>016-024-026-027-054-250300-
NORTHEAST NORTH DAKOTA

CITY           SKY/WX    TMP DP  RH WIND       PRES   REMARKS
GRAND FORKS    LGT RAIN  69  65  86 SE18G24   29.77F
GRND FRKS AFB  CLOUDY    68  66  94 SE13      29.77S
DEVILS LAKE    CLEAR     67  65  93 SE8       29.74S
$$

NDZ022-023-025-028>030-036>039-047>053-250300-
SOUTHEAST NORTH DAKOTA

CITY           SKY/WX    TMP DP  RH WIND       PRES   REMARKS
FARGO          CLOUDY    70  66  87 SE16G25   29.79F
JAMESTOWN      CLEAR     66  57  72 S9        29.76R
$$





USA.gov is the U.S. government's official web portal to all federal, state and local government web resources and services.